Location: Grand Rapids
(42.9630°N, 85.6680°W)
Time: 03:28:42
(UTC-04:00)

A-11 Canister half - Pass Details

Date: 07 June 2024
Orbit: 1524 x 1684 km, 47.3° (Epoch: 21 June)

Event Time Altitude Azimuth Distance (km) Brightness Sun altitude
Rises 23:03:32 0° 290° (WNW) 4,685 12.6 -14.8°
Reaches altitude 10° 23:06:33 10° 291° (WNW) 3,711 11.9 -15.1°
Maximum altitude 23:15:59 86° 22° (NNE) 1,570 9.0 -16.1°
Enters shadow 23:24:47 14° 112° (ESE) 3,524 10.4 -17.0°
Drops below altitude 10° 23:25:42 10° 112° (ESE) 3,813 - -17.1°
Sets 23:28:50 0° 113° (ESE) 4,819 - -17.4°
